Location: Newark
(35.5300°N, 14.3000°E)
Time: 01:53:50
(UTC+00:00)

Transit 4A - Pass Details

Date: 30 November 2019
Orbit: 871 x 973 km, 66.8° (Epoch: 23 January)

Event Time Altitude Azimuth Distance (km) Brightness Sun altitude
Exits shadow 03:37:27 52° 351° (N) 1,073 8.0 -27.0°
Maximum altitude 03:38:53 76° 63° (ENE) 899 7.8 -26.7°
Drops below altitude 10° 03:44:40 10° 149° (SSE) 2,511 10.6 -25.5°
Sets 03:47:09 0° 151° (SSE) 3,449 11.4 -25.0°
